Weather History for Fort Lauderdale, FL

Change the Weather History Date:

Thursday, October 6, 2011

  Actual Average Record
Temperature  
Mean Temperature 82 °F -  
Max Temperature 88 °F 88 °F 95 °F (1986)
Min Temperature 77 °F 72 °F 64 °F (1992)
Cooling Degree Days 18    
Growing Degree Days 32 (Base 50)    
Moisture  
Dew Point 65 °F    
Average Humidity 55    
Maximum Humidity 64    
Minimum Humidity 46    
Precipitation  
Precipitation 0.00 in - - ()
Sea Level Pressure  
Sea Level Pressure 30.01 in    
Wind  
Wind Speed 11 mph (ENE)    
Max Wind Speed 20 mph    
Max Gust Speed 29 mph    
Visibility 10 miles    
Events      
Averages and records for this station are not official NWS values.
T = Trace of Precipitation, MM = Missing Value Source: NWS Daily Summary

Daily Weather History Graph

Daily Weather History Graph

Search for Another Location

Airport:

Trip Planner

Search our weather history database for the weather conditions in past years. The results will help you decide how hot, cold, wet, or windy it might be!

Date:

Astronomy

Oct. 06, 2011 Rise Set
Actual Time 7:15 AM EDT 7:02 PM EDT
Civil Twilight 6:52 AM EDT 7:25 PM EDT
Nautical Twilight 6:25 AM EDT 7:51 PM EDT
Astronomical Twilight 5:58 AM EDT 8:18 PM EDT
Moon 3:50 PM EDT (10/6) 2:30 AM EDT (10/6)
Length of Visible Light 12h 33m
Length of Day
11h 46m
Waxing Gibbous, 75% of the Moon is Illuminated
Oct 6
Waxing Gibbous
Oct 11
Full
Oct 19
Last Quarter
Oct 26
New
Nov 2
First Quarter

Hourly Weather History & Observations

Time (EDT) Temp. Heat Index Dew Point Humidity Pressure Visibility Wind Dir Wind Speed Gust Speed Precip Events Conditions
12:53 AM 80.1 °F 81.5 °F 63.0 °F 56% 30.02 in 10.0 mi NE 6.9 mph - N/A   Mostly Cloudy
1:53 AM 80.1 °F 81.5 °F 63.0 °F 56% 30.01 in 10.0 mi NE 9.2 mph - 0.00 in   Mostly Cloudy
2:53 AM 80.1 °F 81.7 °F 64.0 °F 58% 30.00 in 10.0 mi ENE 9.2 mph - N/A   Overcast
3:53 AM 80.1 °F 81.7 °F 64.0 °F 58% 29.99 in 10.0 mi ENE 10.4 mph - N/A   Overcast
4:53 AM 79.0 °F - 62.1 °F 56% 29.99 in 10.0 mi NE 5.8 mph - N/A   Scattered Clouds
5:53 AM 77.0 °F - 64.0 °F 64% 29.99 in 10.0 mi NNE 4.6 mph - N/A   Partly Cloudy
6:53 AM 77.0 °F - 63.0 °F 62% 30.00 in 10.0 mi North 4.6 mph - N/A   Scattered Clouds
9:53 AM 84.0 °F 86.5 °F 66.9 °F 56% 30.03 in 10.0 mi ENE 13.8 mph 21.9 mph N/A   Scattered Clouds
10:53 AM 84.9 °F 87.1 °F 66.0 °F 53% 30.04 in 10.0 mi ENE 16.1 mph - N/A   Scattered Clouds
11:53 AM 87.1 °F 88.9 °F 64.9 °F 48% 30.05 in 10.0 mi East 18.4 mph 24.2 mph N/A   Scattered Clouds
12:53 PM 88.0 °F 89.6 °F 64.9 °F 46% 30.04 in 10.0 mi NE 13.8 mph 21.9 mph N/A   Scattered Clouds
1:53 PM 86.0 °F 88.8 °F 66.9 °F 53% 30.02 in 10.0 mi East 19.6 mph 28.8 mph N/A   Scattered Clouds
3:53 PM 84.9 °F 87.1 °F 66.0 °F 53% 29.99 in 10.0 mi ENE 19.6 mph 26.5 mph N/A   Scattered Clouds
4:53 PM 84.9 °F 87.1 °F 66.0 °F 53% 29.99 in 10.0 mi NE 17.3 mph 26.5 mph N/A   Scattered Clouds
5:53 PM 84.0 °F 85.8 °F 64.9 °F 53% 29.99 in 10.0 mi NE 17.3 mph 25.3 mph N/A   Scattered Clouds
6:53 PM 82.0 °F 83.4 °F 64.0 °F 54% 30.00 in 10.0 mi ENE 11.5 mph 20.7 mph N/A   Scattered Clouds
8:53 PM 81.0 °F 82.2 °F 63.0 °F 54% 30.02 in 10.0 mi East 18.4 mph 24.2 mph N/A   Scattered Clouds
9:53 PM 81.0 °F 83.0 °F 66.0 °F 60% 30.03 in 10.0 mi ENE 13.8 mph - N/A   Scattered Clouds
10:53 PM 81.0 °F 83.0 °F 66.0 °F 60% 30.04 in 10.0 mi ENE 15.0 mph - N/A   Partly Cloudy